Location: Hackberry
(29.5783°N, 96.8797°W)
Time: 14:46:30
(UTC+00:00)

Transit 2A - Pass Details

Date: 14 November 2024
Orbit: 592 x 956 km, 66.7° (Epoch: 02 December)

Event Time Altitude Azimuth Distance (km) Brightness Sun altitude
Exits shadow 11:31:26 16° 326° (NW) 2,293 8.0 -17.5°
Drops below altitude 10° 11:33:47 10° 347° (NNW) 2,679 8.6 -17.0°
Sets 11:37:19 0° 6° (N) 3,601 9.4 -16.3°
